Previsão horária em Barra

Hoje, 27 Outubro, Terça-feira

Tempo Temperatura Precipitação Vento Pressão Humidade
00:00 +24°C° 0 mm 2 m/s 748 mmHg 81%
01:00 +24°C° 0 mm 2 m/s 748 mmHg 80%
02:00 +25°C° 0.2 mm 1 m/s 748 mmHg 73%
03:00 +25°C° 0.2 mm 1 m/s 747 mmHg 76%
04:00 +24°C° 0 mm 3 m/s 747 mmHg 73%
05:00 +24°C° 0 mm 2 m/s 747 mmHg 71%
06:00 +24°C° 0 mm 2 m/s 748 mmHg 70%
07:00 +24°C° 0 mm 1 m/s 748 mmHg 69%
08:00 +25°C° 0 mm 1 m/s 748 mmHg 65%
09:00 +26°C° 0 mm 1 m/s 748 mmHg 61%
10:00 +28°C° 0 mm 1 m/s 749 mmHg 60%
11:00 +29°C° 0 mm 1 m/s 748 mmHg 58%
12:00 +29°C° 0 mm 1 m/s 748 mmHg 57%
13:00 +30°C° 0 mm 1 m/s 748 mmHg 55%
14:00 +30°C° 0 mm 2 m/s 747 mmHg 56%
15:00 +30°C° 0 mm 2 m/s 747 mmHg 58%
16:00 +29°C° 0 mm 2 m/s 747 mmHg 61%
17:00 +28°C° 0 mm 2 m/s 747 mmHg 69%
18:00 +27°C° 0 mm 1 m/s 747 mmHg 77%
19:00 +25°C° 0 mm 1 m/s 748 mmHg 85%
20:00 +25°C° 0 mm 1 m/s 748 mmHg 86%
21:00 +25°C° 0 mm 1 m/s 749 mmHg 87%
22:00 +25°C° 0 mm 2 m/s 749 mmHg 85%
23:00 +25°C° 0 mm 1 m/s 749 mmHg 86%

Amanhã, 28 Outubro, Quarta-feira

Tempo Temperatura Precipitação Vento Pressão Humidade
00:00 +25°C° 0 mm 1 m/s 749 mmHg 86%
01:00 +24°C° 0 mm 1 m/s 749 mmHg 87%
02:00 +24°C° 0 mm 1 m/s 748 mmHg 87%
03:00 +24°C° 0 mm 1 m/s 748 mmHg 87%
04:00 +24°C° 0 mm 1 m/s 748 mmHg 87%
05:00 +24°C° 0 mm 1 m/s 749 mmHg 85%
06:00 +25°C° 0 mm 1 m/s 749 mmHg 84%
07:00 +25°C° 0 mm 1 m/s 750 mmHg 83%
08:00 +26°C° 0 mm 1 m/s 750 mmHg 76%
09:00 +28°C° 0 mm 1 m/s 750 mmHg 69%
10:00 +29°C° 0 mm 1 m/s 750 mmHg 62%
11:00 +29°C° 0 mm 1 m/s 749 mmHg 59%
12:00 +30°C° 0 mm 1 m/s 748 mmHg 57%
13:00 +30°C° 0 mm 1 m/s 748 mmHg 54%
14:00 +31°C° 0 mm 2 m/s 747 mmHg 53%
15:00 +31°C° 0 mm 2 m/s 747 mmHg 52%
16:00 +31°C° 0 mm 2 m/s 747 mmHg 50%
17:00 +29°C° 0 mm 2 m/s 747 mmHg 60%
18:00 +27°C° 0 mm 1 m/s 747 mmHg 70%
19:00 +25°C° 0 mm 1 m/s 748 mmHg 79%
20:00 +25°C° 0 mm 1 m/s 748 mmHg 81%
21:00 +24°C° 0 mm 1 m/s 748 mmHg 83%
22:00 +24°C° 0 mm 1 m/s 748 mmHg 85%
23:00 +24°C° 0 mm 1 m/s 748 mmHg 85%

Depois de amanhã, 29 Outubro, Quinta-feira

Tempo Temperatura Precipitação Vento Pressão Humidade
00:00 +23°C° 0 mm 1 m/s 748 mmHg 86%
01:00 +23°C° 0 mm 1 m/s 747 mmHg 86%
02:00 +23°C° 0 mm 1 m/s 747 mmHg 85%
03:00 +22°C° 0 mm 1 m/s 747 mmHg 84%
04:00 +22°C° 0 mm 1 m/s 747 mmHg 84%
05:00 +23°C° 0 mm 1 m/s 747 mmHg 79%
06:00 +24°C° 0 mm 1 m/s 748 mmHg 74%
07:00 +25°C° 0 mm 1 m/s 749 mmHg 69%
08:00 +28°C° 0 mm 1 m/s 749 mmHg 58%
09:00 +31°C° 0 mm 1 m/s 749 mmHg 47%
10:00 +35°C° 0 mm 2 m/s 749 mmHg 35%
11:00 +35°C° 0 mm 2 m/s 748 mmHg 36%
12:00 +35°C° 0 mm 3 m/s 747 mmHg 37%
13:00 +35°C° 0 mm 3 m/s 747 mmHg 38%
14:00 +34°C° 0 mm 3 m/s 746 mmHg 42%
15:00 +33°C° 0 mm 3 m/s 745 mmHg 47%
16:00 +31°C° 0 mm 3 m/s 745 mmHg 52%
17:00 +29°C° 0 mm 3 m/s 745 mmHg 61%
18:00 +27°C° 0 mm 2 m/s 746 mmHg 71%
19:00 +25°C° 0 mm 2 m/s 746 mmHg 80%
20:00 +24°C° 0 mm 2 m/s 747 mmHg 83%
21:00 +24°C° 0 mm 2 m/s 747 mmHg 86%
22:00 +23°C° 0 mm 2 m/s 747 mmHg 89%
23:00 +23°C° 0 mm 2 m/s 747 mmHg 90%

30 Outubro, Sexta-feira

Tempo Temperatura Precipitação Vento Pressão Humidade
00:00 +23°C° 0 mm 1 m/s 746 mmHg 90%
01:00 +22°C° 0 mm 1 m/s 746 mmHg 91%
02:00 +22°C° 0 mm 1 m/s 746 mmHg 91%
03:00 +22°C° 0 mm 1 m/s 746 mmHg 91%
04:00 +21°C° 0 mm 1 m/s 746 mmHg 91%
05:00 +22°C° 0 mm 1 m/s 746 mmHg 86%
06:00 +23°C° 0 mm 1 m/s 747 mmHg 80%
07:00 +25°C° 0 mm 1 m/s 747 mmHg 75%
08:00 +27°C° 0 mm 1 m/s 747 mmHg 65%
09:00 +30°C° 0 mm 1 m/s 747 mmHg 56%
10:00 +32°C° 0 mm 2 m/s 748 mmHg 46%
11:00 +32°C° 0 mm 2 m/s 747 mmHg 45%
12:00 +34°C° 0 mm 3 m/s 746 mmHg 44%
13:00 +34°C° 0 mm 4 m/s 746 mmHg 42%
14:00 +33°C° 0 mm 4 m/s 745 mmHg 46%
15:00 +32°C° 0 mm 4 m/s 745 mmHg 49%
16:00 +32°C° 0 mm 4 m/s 744 mmHg 52%
17:00 +29°C° 0 mm 3 m/s 745 mmHg 63%
18:00 +27°C° 0 mm 3 m/s 745 mmHg 73%
19:00 +25°C° 0 mm 3 m/s 746 mmHg 83%
20:00 +25°C° 0 mm 3 m/s 746 mmHg 86%
21:00 +24°C° 0 mm 3 m/s 747 mmHg 90%
22:00 +24°C° 0 mm 3 m/s 747 mmHg 94%
23:00 +24°C° 0 mm 3 m/s 747 mmHg 94%

31 Outubro, Sábado

Tempo Temperatura Precipitação Vento Pressão Humidade
00:00 +24°C° 0 mm 3 m/s 747 mmHg 94%
01:00 +24°C° 0 mm 3 m/s 746 mmHg 94%
02:00 +22°C° 0 mm 3 m/s 746 mmHg 94%
03:00 +23°C° 0 mm 2 m/s 746 mmHg 95%
04:00 +23°C° 0 mm 2 m/s 746 mmHg 95%
05:00 +24°C° 0 mm 2 m/s 747 mmHg 91%
06:00 +25°C° 0 mm 2 m/s 747 mmHg 87%
07:00 +25°C° 0 mm 2 m/s 748 mmHg 83%
08:00 +28°C° 0 mm 2 m/s 748 mmHg 71%
09:00 +30°C° 0 mm 2 m/s 748 mmHg 59%
10:00 +34°C° 0 mm 2 m/s 748 mmHg 47%
11:00 +34°C° 0 mm 2 m/s 747 mmHg 48%
12:00 +34°C° 0 mm 3 m/s 747 mmHg 49%
13:00 +34°C° 0 mm 4 m/s 746 mmHg 50%
14:00 +33°C° 0 mm 4 m/s 746 mmHg 53%
15:00 +32°C° 0 mm 4 m/s 746 mmHg 56%
16:00 +30°C° 0 mm 4 m/s 745 mmHg 59%
17:00 +29°C° 0 mm 4 m/s 746 mmHg 66%
18:00 +27°C° 0 mm 3 m/s 746 mmHg 73%
19:00 +26°C° 0 mm 3 m/s 747 mmHg 80%
20:00 +25°C° 0 mm 2 m/s 747 mmHg 84%
21:00 +24°C° 0 mm 2 m/s 748 mmHg 88%
22:00 +24°C° 0 mm 2 m/s 748 mmHg 92%
23:00 +24°C° 0 mm 2 m/s 748 mmHg 92%

1 Novembro, Domingo

Tempo Temperatura Precipitação Vento Pressão Humidade
00:00 +23°C° 0 mm 1 m/s 748 mmHg 93%
01:00 +23°C° 0 mm 1 m/s 748 mmHg 94%
02:00 +23°C° 0 mm 1 m/s 748 mmHg 94%
03:00 +23°C° 0 mm 1 m/s 748 mmHg 94%
04:00 +22°C° 0 mm 1 m/s 748 mmHg 94%
05:00 +23°C° 0 mm 1 m/s 748 mmHg 91%
06:00 +24°C° 0 mm 1 m/s 749 mmHg 87%
07:00 +23°C° 0 mm 0 m/s 750 mmHg 83%
08:00 +27°C° 0 mm 1 m/s 749 mmHg 71%
09:00 +30°C° 0 mm 1 m/s 749 mmHg 60%
10:00 +32°C° 0 mm 1 m/s 749 mmHg 48%
11:00 +34°C° 0 mm 2 m/s 749 mmHg 47%
12:00 +34°C° 0 mm 2 m/s 748 mmHg 46%
13:00 +34°C° 0 mm 3 m/s 748 mmHg 44%
14:00 +33°C° 0 mm 3 m/s 748 mmHg 48%
15:00 +33°C° 0 mm 3 m/s 747 mmHg 52%
16:00 +31°C° 0 mm 3 m/s 747 mmHg 55%
17:00 +29°C° 0 mm 3 m/s 748 mmHg 66%
18:00 +27°C° 0 mm 2 m/s 748 mmHg 77%
19:00 +25°C° 0 mm 2 m/s 748 mmHg 88%
20:00 +25°C° 0 mm 2 m/s 749 mmHg 90%
21:00 +25°C° 0 mm 2 m/s 749 mmHg 91%
22:00 +25°C° 0 mm 1 m/s 750 mmHg 93%
23:00 +24°C° 0 mm 1 m/s 749 mmHg 93%
Mostrar mais